| time (UTC) | temp C | wind direction | speed KPH | gust KPH | rain 1hr cm | rain 24hr cm | rain mn cm | humidity % | barometer mb |
| 20260509043050 | 16 | 0 | 0.0 | 3.2 | 0.00 | 0.00 | 0.00 | 84 | 1015.3 |
| 20260509041617 | 16 | 261 | 1.6 | 4.8 | 0.00 | 0.00 | 0.00 | 84 | 1015.2 |
| 20260509040055 | 16 | 0 | 1.6 | 4.8 | 0.00 | 0.00 | 0.00 | 84 | 1015.1 |
| 20260509034551 | 16 | 0 | 0.0 | 6.4 | 0.00 | 0.00 | 0.00 | 83 | 1015.1 |
| 20260509033053 | 16 | 0 | 1.6 | 6.4 | 0.00 | 0.00 | 0.00 | 83 | 1014.9 |
| 20260509031554 | 16 | 246 | 1.6 | 8.0 | 0.00 | 0.00 | 0.00 | 83 | 1014.7 |
| 20260509030053 | 16 | 216 | 3.2 | 12.9 | 0.00 | 0.00 | 0.00 | 83 | 1014.8 |
| 20260509024551 | 16 | 249 | 4.8 | 12.9 | 0.00 | 0.00 | 0.00 | 83 | 1014.6 |
| 20260509023106 | 16 | 0 | 1.6 | 14.5 | 0.00 | 0.00 | 0.00 | 83 | 1014.3 |
| 20260509021548 | 17 | 245 | 3.2 | 11.3 | 0.00 | 0.00 | 0.00 | 82 | 1014.4 |
| 20260509020055 | 17 | 250 | 4.8 | 11.3 | 0.00 | 0.00 | 0.00 | 82 | 1014.2 |
| 20260509014550 | 17 | 295 | 3.2 | 16.1 | 0.00 | 0.00 | 0.00 | 82 | 1014.1 |
| 20260509013054 | 17 | 298 | 4.8 | 14.5 | 0.00 | 0.00 | 0.00 | 81 | 1014.2 |
| 20260509011556 | 17 | 262 | 4.8 | 12.9 | 0.00 | 0.00 | 0.00 | 81 | 1014.2 |
| 20260509010053 | 18 | 296 | 8.0 | 17.7 | 0.00 | 0.00 | 0.00 | 79 | 1014.1 |
| 20260509004546 | 19 | 255 | 8.0 | 16.1 | 0.00 | 0.00 | 0.00 | 77 | 1014.2 |
| 20260509003051 | 19 | 253 | 8.0 | 17.7 | 0.00 | 0.00 | 0.00 | 76 | 1014.1 |
| 20260509001551 | 20 | 241 | 6.4 | 17.7 | 0.00 | 0.00 | 0.00 | 75 | 1014.0 |
| 20260509000052 | 20 | 236 | 6.4 | 17.7 | 0.00 | 0.00 | 0.00 | 76 | 1014.1 |
| 20260508234552 | 19 | 360 | 8.0 | 19.3 | 0.00 | 0.00 | 0.00 | 76 | 1014.2 |
| 20260508233048 | 20 | 292 | 8.0 | 22.5 | 0.00 | 0.00 | 0.00 | 75 | 1014.3 |
| 20260508231552 | 20 | 259 | 8.0 | 20.9 | 0.00 | 0.00 | 0.00 | 74 | 1014.5 |
| 20260508230053 | 20 | 275 | 11.3 | 22.5 | 0.00 | 0.00 | 0.00 | 75 | 1014.6 |
| 20260508224557 | 19 | 291 | 9.7 | 20.9 | 0.00 | 0.00 | 0.00 | 76 | 1014.8 |
| 20260508223051 | 20 | 261 | 11.3 | 22.5 | 0.00 | 0.00 | 0.00 | 75 | 1014.9 |
| 20260508221554 | 19 | 256 | 12.9 | 24.1 | 0.00 | 0.00 | 0.00 | 75 | 1015.0 |
| 20260508220055 | 19 | 248 | 12.9 | 29.0 | 0.00 | 0.00 | 0.00 | 76 | 1015.2 |
| 20260508214556 | 20 | 279 | 8.0 | 25.7 | 0.00 | 0.00 | 0.00 | 74 | 1015.2 |
| 20260508213054 | 20 | 306 | 9.7 | 24.1 | 0.00 | 0.00 | 0.00 | 74 | 1015.2 |
| 20260508211556 | 20 | 293 | 12.9 | 22.5 | 0.00 | 0.00 | 0.00 | 74 | 1015.2 |
| 20260508210056 | 20 | 248 | 9.7 | 22.5 | 0.00 | 0.00 | 0.00 | 73 | 1015.2 |
| 20260508204556 | 20 | 271 | 11.3 | 24.1 | 0.00 | 0.00 | 0.00 | 74 | 1015.3 |
| 20260508203051 | 20 | 288 | 11.3 | 24.1 | 0.00 | 0.00 | 0.00 | 76 | 1015.2 |
| 20260508201555 | 20 | 265 | 9.7 | 22.5 | 0.00 | 0.00 | 0.00 | 75 | 1015.4 |
| 20260508200117 | 20 | 291 | 11.3 | 20.9 | 0.00 | 0.00 | 0.00 | 74 | 1015.4 |
| 20260508194550 | 20 | 252 | 8.0 | 17.7 | 0.00 | 0.00 | 0.00 | 74 | 1015.6 |
| 20260508193132 | 20 | 263 | 8.0 | 19.3 | 0.00 | 0.00 | 0.00 | 74 | 1015.6 |
| 20260508191603 | 20 | 284 | 9.7 | 25.7 | 0.00 | 0.00 | 0.00 | 75 | 1016.0 |
| 20260508190054 | 20 | 281 | 9.7 | 17.7 | 0.00 | 0.00 | 0.00 | 73 | 1015.9 |
| 20260508184604 | 20 | 281 | 11.3 | 17.7 | 0.00 | 0.00 | 0.00 | 74 | 1016.1 |
| 20260508183113 | 20 | 262 | 6.4 | 14.5 | 0.00 | 0.00 | 0.00 | 72 | 1016.2 |
| 20260508181605 | 20 | 269 | 1.6 | 12.9 | 0.00 | 0.00 | 0.00 | 74 | 1016.3 |
| 20260508180056 | 22 | 178 | 1.6 | 8.0 | 0.00 | 0.00 | 0.00 | 67 | 1016.5 |
| 20260508174553 | 21 | 78 | 4.8 | 11.3 | 0.00 | 0.00 | 0.00 | 71 | 1016.7 |
| 20260508173053 | 20 | 34 | 0.0 | 4.8 | 0.00 | 0.00 | 0.00 | 75 | 1016.8 |
| 20260508171555 | 18 | 56 | 0.0 | 4.8 | 0.00 | 0.00 | 0.00 | 76 | 1016.9 |
| 20260508170057 | 18 | 32 | 1.6 | 8.0 | 0.00 | 0.00 | 0.00 | 78 | 1016.9 |
| 20260508164551 | 18 | 43 | 3.2 | 8.0 | 0.00 | 0.00 | 0.00 | 78 | 1017.0 |
| 20260508163050 | 17 | 352 | 0.0 | 4.8 | 0.00 | 0.00 | 0.00 | 80 | 1017.0 |
| 20260508161553 | 17 | 360 | 0.0 | 4.8 | 0.00 | 0.00 | 0.00 | 81 | 1017.0 |
| 20260508160056 | 17 | 0 | 1.6 | 6.4 | 0.00 | 0.00 | 0.00 | 81 | 1017.1 |
| 20260508154614 | 17 | 5 | 0.0 | 4.8 | 0.00 | 0.00 | 0.00 | 81 | 1017.0 |
| 20260508153055 | 17 | 5 | 0.0 | 4.8 | 0.00 | 0.00 | 0.00 | 82 | 1017.0 |
| 20260508151609 | 16 | 5 | 1.6 | 4.8 | 0.00 | 0.00 | 0.00 | 82 | 1017.1 |
| 20260508150059 | 16 | 0 | 0.0 | 4.8 | 0.00 | 0.00 | 0.00 | 82 | 1017.0 |
| 20260508144607 | 16 | 0 | 0.0 | 3.2 | 0.00 | 0.00 | 0.00 | 83 | 1017.0 |
| 20260508143107 | 16 | 345 | 1.6 | 4.8 | 0.00 | 0.00 | 0.00 | 83 | 1017.0 |
| 20260508141605 | 16 | 0 | 0.0 | 6.4 | 0.00 | 0.00 | 0.00 | 84 | 1017.0 |
| 20260508140055 | 16 | 77 | 0.0 | 4.8 | 0.00 | 0.00 | 0.00 | 84 | 1016.9 |
| 20260508134621 | 16 | 0 | 0.0 | 4.8 | 0.00 | 0.00 | 0.00 | 84 | 1016.7 |
| 20260508133101 | 16 | 96 | 1.6 | 6.4 | 0.00 | 0.00 | 0.00 | 84 | 1016.6 |
| 20260508131552 | 16 | 0 | 0.0 | 4.8 | 0.00 | 0.00 | 0.00 | 84 | 1016.5 |
| 20260508130050 | 16 | 103 | 3.2 | 6.4 | 0.00 | 0.00 | 0.00 | 84 | 1016.3 |
| 20260508124555 | 16 | 0 | 1.6 | 4.8 | 0.00 | 0.00 | 0.00 | 84 | 1016.3 |
| 20260508123056 | 16 | 122 | 0.0 | 4.8 | 0.00 | 0.00 | 0.00 | 84 | 1016.2 |
| 20260508121553 | 16 | 0 | 0.0 | 4.8 | 0.00 | 0.00 | 0.00 | 84 | 1016.2 |
| 20260508120058 | 16 | 0 | 1.6 | 6.4 | 0.00 | 0.00 | 0.00 | 84 | 1016.2 |
| 20260508114555 | 16 | 125 | 3.2 | 8.0 | 0.00 | 0.00 | 0.00 | 84 | 1016.1 |
| 20260508113055 | 16 | 123 | 0.0 | 4.8 | 0.00 | 0.00 | 0.00 | 84 | 1016.1 |
| 20260508111553 | 16 | 0 | 3.2 | 9.7 | 0.00 | 0.00 | 0.00 | 84 | 1016.1 |
| 20260508110052 | 16 | 97 | 3.2 | 11.3 | 0.00 | 0.00 | 0.00 | 84 | 1016.0 |
| 20260508104556 | 16 | 137 | 6.4 | 9.7 | 0.00 | 0.00 | 0.00 | 84 | 1015.9 |
| 20260508103101 | 16 | 111 | 1.6 | 6.4 | 0.00 | 0.00 | 0.00 | 85 | 1016.1 |
| 20260508101553 | 16 | 110 | 3.2 | 9.7 | 0.00 | 0.00 | 0.00 | 85 | 1016.1 |
| 20260508100112 | 16 | 148 | 1.6 | 6.4 | 0.00 | 0.00 | 0.00 | 85 | 1016.2 |
| 20260508094603 | 16 | 0 | 0.0 | 4.8 | 0.00 | 0.00 | 0.00 | 85 | 1016.2 |
| 20260508093050 | 16 | 173 | 0.0 | 9.7 | 0.00 | 0.00 | 0.00 | 84 | 1016.3 |
| 20260508091604 | 16 | 179 | 0.0 | 8.0 | 0.00 | 0.00 | 0.00 | 84 | 1016.3 |
| 20260508090115 | 16 | 154 | 4.8 | 9.7 | 0.00 | 0.00 | 0.00 | 84 | 1016.3 |
| 20260508084556 | 16 | 191 | 1.6 | 9.7 | 0.00 | 0.00 | 0.00 | 84 | 1016.4 |
| 20260508083055 | 16 | 160 | 3.2 | 8.0 | 0.00 | 0.00 | 0.00 | 84 | 1016.6 |
| 20260508081608 | 16 | 136 | 0.0 | 3.2 | 0.00 | 0.00 | 0.00 | 84 | 1016.7 |
| 20260508080057 | 16 | 136 | 1.6 | 11.3 | 0.00 | 0.00 | 0.00 | 84 | 1016.9 |
| 20260508074552 | 16 | 157 | 3.2 | 9.7 | 0.00 | 0.00 | 0.00 | 84 | 1016.9 |
| 20260508073106 | 16 | 148 | 4.8 | 12.9 | 0.00 | 0.00 | 0.00 | 84 | 1017.0 |
| 20260508071553 | 16 | 168 | 4.8 | 9.7 | 0.00 | 0.00 | 0.00 | 84 | 1017.1 |
| 20260508070054 | 16 | 0 | 0.0 | 6.4 | 0.00 | 0.00 | 0.00 | 84 | 1017.1 |
| 20260508064606 | 16 | 0 | 0.0 | 9.7 | 0.00 | 0.00 | 0.00 | 83 | 1017.1 |
| 20260508063106 | 16 | 214 | 3.2 | 9.7 | 0.00 | 0.00 | 0.00 | 83 | 1017.2 |
| 20260508061550 | 16 | 196 | 1.6 | 6.4 | 0.00 | 0.00 | 0.00 | 83 | 1017.2 |
| 20260508060105 | 16 | 197 | 1.6 | 6.4 | 0.00 | 0.00 | 0.00 | 83 | 1017.1 |
| 20260508054551 | 16 | 198 | 0.0 | 4.8 | 0.00 | 0.00 | 0.00 | 83 | 1017.1 |
| 20260508053055 | 16 | 0 | 1.6 | 8.0 | 0.00 | 0.00 | 0.00 | 84 | 1017.1 |
| 20260508051608 | 16 | 0 | 1.6 | 4.8 | 0.00 | 0.00 | 0.00 | 84 | 1017.2 |
| 20260508050051 | 16 | 218 | 0.0 | 4.8 | 0.00 | 0.00 | 0.00 | 83 | 1017.3 |
| 20260508044551 | 16 | 219 | 1.6 | 4.8 | 0.00 | 0.00 | 0.00 | 83 | 1017.1 |